Home > Weather > Reston > Past weeks

Flag for USA Past Weather in Reston, Virginia, USA — Yesterday and Last 2 Weeks

Now
88 °F

Passing clouds.


Feels Like: 89 °F
Forecast: 67 / 88 °F
Wind: 6 mph from Southeast

Location: Washington-Dulles International Airport

Current Time: Aug 28, 2016 at 3:03:59 PM

Latest Report: Aug 28, 2016 at 1:52 PM


Visibility: 10 mi

Pressure: 30.22 "Hg

Humidity: 45%

Dew Point: 64 °F

Location of RestonLocation

Past Weather in Reston — Graph

°F

Reston Temperature Yesterday

Maximum temperature yesterday: 91 °F (at 3:52 PM)
Minimum temperature yesterday: 72 °F (at 11:52 PM)
Average temperature yesterday: 82 °F

High & Low Weather Summary for the Past Weeks

 TemperatureHumidityPressure
High97 °F (Aug 13, 2:52 PM)97% (Aug 15, 9:52 PM)30.34 "Hg (Aug 15, 9:52 PM)
Low62 °F (Aug 23, 3:52 AM)35% (Aug 19, 6:52 PM)29.76 "Hg (Aug 21, 1:52 PM)
Average79 °F68%30.06 "Hg
* Reported Aug 13 1:52 PM — Aug 28 1:52 PM, Reston, Weather by CustomWeather, © 2016

Note: Actual official high and low records may vary slightly from our data, if they occured in-between our weather recording intervals... More about our weather records

Advertising

Reston Weather History for the Previous 24 Hours

Scroll right to see more
 ConditionsComfort  
Time TempWeatherWind HumidityBarometerVisibility
1:52 PM
Sun, Aug 28
88 °FPassing clouds.6 mph45%30.22 "Hg10 mi
12:52 PM86 °FPassing clouds.3 mph51%30.22 "Hg10 mi
11:52 AM85 °FScattered clouds.No wind53%30.24 "Hg10 mi
10:52 AM82 °FScattered clouds.No wind63%30.24 "Hg10 mi
9:52 AM80 °FScattered clouds.No wind69%30.25 "Hg10 mi
8:52 AM76 °FScattered clouds.3 mph82%30.24 "Hg10 mi
7:55 AM74 °FScattered clouds.No wind82%30.25 "Hg10 mi
6:52 AM67 °FPassing clouds.No wind93%30.24 "Hg10 mi
5:52 AM67 °FPassing clouds.No wind90%30.22 "Hg10 mi
4:52 AM67 °FPassing clouds.No wind87%30.22 "Hg10 mi
3:52 AM67 °FClear.3 mph90%30.20 "Hg10 mi
2:52 AM68 °FClear.No wind87%30.19 "Hg10 mi
1:52 AM70 °FClear.No wind81%30.18 "Hg10 mi
12:52 AM71 °FClear.3 mph78%30.18 "Hg10 mi
11:52 PM
Sat, Aug 27
72 °FClear.No wind76%30.19 "Hg10 mi
10:52 PM76 °FClear.5 mph67%30.19 "Hg10 mi
9:52 PM79 °FClear.3 mph60%30.19 "Hg10 mi
8:52 PM81 °FPassing clouds.6 mph56%30.16 "Hg10 mi
7:52 PM83 °FPassing clouds.3 mph50%30.14 "Hg10 mi
6:52 PM87 °FPassing clouds.6 mph45%30.12 "Hg10 mi
5:52 PM89 °FScattered clouds.5 mph42%30.13 "Hg10 mi
4:52 PM90 °FScattered clouds.12 mph38%30.12 "Hg10 mi
3:52 PM91 °FScattered clouds.8 mph39%30.14 "Hg10 mi
Weather by CustomWeather, © 2016

See weather overviewHow to use our weather pages